Location: Gazon
(48.1318°N, 1.2708°W)
Time: 01:32:12
(UTC+00:00)

CREW DRAGON DEMO-1 DEB - Pass Details

Date: 18 September 2020
Orbit: 361 x 363 km, 51.6° (Epoch: 29 October)

Event Time Altitude Azimuth Distance (km) Brightness Sun altitude
Rises 18:28:11 0° 266° (W) 2,192 9.0 -3.8°
Reaches altitude 10° 18:30:15 10° 272° (W) 1,347 7.6 -4.1°
Maximum altitude 18:33:10 48° 349° (NNW) 488 3.6 -4.6°
Drops below altitude 10° 18:36:07 10° 65° (ENE) 1,354 5.1 -5.1°
Enters shadow 18:37:12 - 69° (ENE) 1,795 5.7 -5.3°
